This is the latest recevied weather packets stored in our database for station/object K7LDN-13. If no packets are shown the sender has not sent any weather packets the latest 10 day(s).
| Time | Temp. | Humidity | Pressure | Rain* | Wind** | Luminosity | Snow |
|---|---|---|---|---|---|---|---|
| 1777825567 | 18.89° C | 25% | 1018.8 hPa | 0 mm | - | 520 W/m² | - |
| 1777825265 | 18.33° C | 26% | 1019 hPa | 0 mm | - | 564 W/m² | - |
| 1777824962 | 18.33° C | 25% | 1018.9 hPa | 0 mm | - | 515 W/m² | - |
| 1777824657 | 17.78° C | 26% | 1018.9 hPa | 0 mm | - | 457 W/m² | - |
| 1777824355 | 17.78° C | 27% | 1018.8 hPa | 0 mm | - | 434 W/m² | - |
| 1777824050 | 17.78° C | 27% | 1018.8 hPa | 0 mm | - | 422 W/m² | - |
| 1777823747 | 17.22° C | 28% | 1019 hPa | 0 mm | - | 420 W/m² | - |
| 1777823444 | 17.22° C | 27% | 1019.1 hPa | 0 mm | - | 448 W/m² | - |
| 1777823141 | 17.22° C | 30% | 1018.9 hPa | 0 mm | - | 506 W/m² | - |
| 1777822839 | 17.22° C | 30% | 1019 hPa | 0 mm | - | 486 W/m² | - |
| 1777822537 | 17.22° C | 29% | 1019 hPa | 0 mm | - | 484 W/m² | - |
| 1777822234 | 16.67° C | 30% | 1019.1 hPa | 0 mm | - | 461 W/m² | - |
| 1777821932 | 16.11° C | 35% | 1019.1 hPa | 0 mm | - | 459 W/m² | - |
| 1777821629 | 15° C | 40% | 1019.3 hPa | 0 mm | - | 439 W/m² | - |
| 1777821328 | 15° C | 40% | 1019.4 hPa | 0 mm | - | 383 W/m² | - |
| 1777821024 | 14.44° C | 41% | 1019.1 hPa | 0 mm | - | 279 W/m² | - |
| 1777820720 | 14.44° C | 40% | 1019.4 hPa | 0 mm | - | 234 W/m² | - |
| 1777820416 | 14.44° C | 39% | 1019 hPa | 0 mm | - | 245 W/m² | - |
| 1777820114 | 14.44° C | 40% | 1019.1 hPa | 0 mm | - | 266 W/m² | - |
| 1777819811 | 14.44° C | 41% | 1019.3 hPa | 0 mm | - | 301 W/m² | - |
| 1777819509 | 13.89° C | 40% | 1018.9 hPa | 0 mm | - | 319 W/m² | - |
| 1777819206 | 13.89° C | 40% | 1019.3 hPa | 0 mm | - | 312 W/m² | - |
| 1777818903 | 13.89° C | 41% | 1019.3 hPa | 0 mm | - | 293 W/m² | - |
| 1777818599 | 13.89° C | 40% | 1019.1 hPa | 0 mm | - | 267 W/m² | - |
| 1777818296 | 13.33° C | 41% | 1019.1 hPa | 0 mm | - | 237 W/m² | - |
* Rain latest hour (hover to see other rain measurements)
** Current wind speed in m/s (hover to see current wind gust speed)